Hourly Weather Aberystwyth

Today, 24 January, Sunday

Time Temperature Precipitation Wind Pressure Humidity
00:00 -2°C° 0 mm 3 mps 739 mmHg 81%
01:00 -1°C° 0.2 mm 3 mps 739 mmHg 81%
02:00 -2°C° 0.2 mm 4 mps 739 mmHg 81%
03:00 -2°C° 0.2 mm 4 mps 738 mmHg 81%
04:00 -2°C° 1.2 mm 4 mps 738 mmHg 86%
05:00 -1°C° 1.2 mm 3 mps 738 mmHg 91%
06:00 -1°C° 1.2 mm 3 mps 738 mmHg 95%
07:00 -2°C° 0.3 mm 4 mps 739 mmHg 95%
08:00 -1°C° 0.3 mm 4 mps 739 mmHg 95%
09:00 -1°C° 0.3 mm 5 mps 739 mmHg 95%
10:00 -1°C° 0.1 mm 5 mps 739 mmHg 91%
11:00 0°C° 0.1 mm 5 mps 740 mmHg 86%
12:00 0°C° 0.1 mm 5 mps 740 mmHg 82%
13:00 0°C° 0.1 mm 5 mps 740 mmHg 84%
14:00 0°C° 0.1 mm 5 mps 740 mmHg 85%
15:00 -1°C° 0.1 mm 6 mps 740 mmHg 86%
16:00 -1°C° 0.2 mm 7 mps 741 mmHg 84%
17:00 -1°C° 0.2 mm 9 mps 741 mmHg 82%
18:00 0°C° 0.2 mm 10 mps 741 mmHg 80%
19:00 -1°C° 0.3 mm 11 mps 741 mmHg 83%
20:00 -1°C° 0.3 mm 11 mps 742 mmHg 86%
21:00 -1°C° 0.3 mm 12 mps 742 mmHg 89%
22:00 -1°C° 0.1 mm 11 mps 742 mmHg 89%
23:00 -1°C° 0.1 mm 11 mps 743 mmHg 90%

Tomorrow, 25 January, Monday

Time Temperature Precipitation Wind Pressure Humidity
00:00 -1°C° 0.1 mm 11 mps 743 mmHg 91%
01:00 0°C° 0.2 mm 10 mps 744 mmHg 92%
02:00 0°C° 0.2 mm 9 mps 744 mmHg 93%
03:00 0°C° 0.2 mm 9 mps 745 mmHg 94%
04:00 0°C° 0.1 mm 9 mps 745 mmHg 93%
05:00 0°C° 0.1 mm 8 mps 746 mmHg 92%
06:00 0°C° 0.1 mm 8 mps 746 mmHg 91%
07:00 0°C° 0 mm 8 mps 747 mmHg 90%
08:00 0°C° 0 mm 8 mps 747 mmHg 88%
09:00 0°C° 0 mm 7 mps 747 mmHg 87%
10:00 0°C° 0 mm 7 mps 748 mmHg 87%
11:00 0°C° 0 mm 7 mps 748 mmHg 87%
12:00 +2°C° 0 mm 7 mps 748 mmHg 87%
13:00 +2°C° 0 mm 7 mps 748 mmHg 87%
14:00 +2°C° 0 mm 7 mps 749 mmHg 87%
15:00 +2°C° 0 mm 7 mps 749 mmHg 86%
16:00 +1°C° 0 mm 6 mps 749 mmHg 87%
17:00 +1°C° 0 mm 6 mps 750 mmHg 87%
18:00 +1°C° 0 mm 5 mps 750 mmHg 88%
19:00 0°C° 0 mm 4 mps 750 mmHg 88%
20:00 0°C° 0 mm 4 mps 751 mmHg 88%
21:00 +1°C° 0 mm 3 mps 751 mmHg 88%
22:00 0°C° 0 mm 3 mps 751 mmHg 88%
23:00 0°C° 0 mm 3 mps 751 mmHg 88%

Day after tomorrow, 26 January, Tuesday

Time Temperature Precipitation Wind Pressure Humidity
00:00 +1°C° 0 mm 2 mps 751 mmHg 88%
01:00 +1°C° 0 mm 2 mps 751 mmHg 87%
02:00 0°C° 0 mm 3 mps 750 mmHg 87%
03:00 0°C° 0 mm 3 mps 750 mmHg 86%
04:00 0°C° 0.4 mm 4 mps 749 mmHg 88%
05:00 0°C° 0.4 mm 4 mps 749 mmHg 91%
06:00 0°C° 0.4 mm 5 mps 748 mmHg 93%
07:00 0°C° 1.5 mm 5 mps 747 mmHg 94%
08:00 +1°C° 1.5 mm 6 mps 746 mmHg 96%
09:00 0°C° 1.5 mm 7 mps 745 mmHg 97%
10:00 +2°C° 1.3 mm 6 mps 745 mmHg 97%
11:00 +3°C° 1.3 mm 6 mps 744 mmHg 98%
12:00 +4°C° 1.3 mm 6 mps 743 mmHg 98%
13:00 +5°C° 0.2 mm 7 mps 744 mmHg 97%
14:00 +6°C° 0.2 mm 7 mps 744 mmHg 97%
15:00 +7°C° 0.2 mm 8 mps 744 mmHg 97%
16:00 +6°C° 0.1 mm 7 mps 745 mmHg 96%
17:00 +6°C° 0.1 mm 7 mps 746 mmHg 96%
18:00 +5°C° 0.1 mm 7 mps 747 mmHg 95%
19:00 +5°C° 0 mm 7 mps 747 mmHg 95%
20:00 +5°C° 0 mm 7 mps 748 mmHg 94%
21:00 +4°C° 0 mm 6 mps 749 mmHg 94%
22:00 +5°C° 0 mm 7 mps 749 mmHg 95%
23:00 +5°C° 0 mm 7 mps 750 mmHg 95%

27 January, Wednesday

Time Temperature Precipitation Wind Pressure Humidity
00:00 +5°C° 0 mm 7 mps 750 mmHg 96%
01:00 +5°C° 0 mm 6 mps 750 mmHg 96%
02:00 +5°C° 0 mm 6 mps 750 mmHg 96%
03:00 +4°C° 0 mm 6 mps 751 mmHg 96%
04:00 +5°C° 0 mm 5 mps 751 mmHg 97%
05:00 +5°C° 0 mm 5 mps 751 mmHg 97%
06:00 +5°C° 0 mm 4 mps 750 mmHg 98%
07:00 +5°C° 0 mm 5 mps 750 mmHg 97%
08:00 +5°C° 0 mm 5 mps 750 mmHg 97%
09:00 +6°C° 0 mm 5 mps 750 mmHg 96%
10:00 +6°C° 0.1 mm 5 mps 750 mmHg 97%
11:00 +7°C° 0.1 mm 6 mps 749 mmHg 97%
12:00 +8°C° 0.1 mm 6 mps 749 mmHg 97%
13:00 +8°C° 1.4 mm 6 mps 748 mmHg 97%
14:00 +8°C° 1.4 mm 7 mps 747 mmHg 97%
15:00 +8°C° 1.4 mm 7 mps 746 mmHg 97%
16:00 +8°C° 2.2 mm 7 mps 745 mmHg 98%
17:00 +9°C° 2.2 mm 7 mps 744 mmHg 98%
18:00 +9°C° 2.2 mm 7 mps 743 mmHg 98%
19:00 +9°C° 0.8 mm 7 mps 742 mmHg 98%
20:00 +9°C° 0.8 mm 7 mps 741 mmHg 98%
21:00 +10°C° 0.8 mm 7 mps 740 mmHg 97%
22:00 +9°C° 0.5 mm 7 mps 738 mmHg 97%
23:00 +9°C° 0.5 mm 7 mps 737 mmHg 96%

28 January, Thursday

Time Temperature Precipitation Wind Pressure Humidity
00:00 +9°C° 0.5 mm 7 mps 736 mmHg 96%
01:00 +8°C° 0.5 mm 10 mps 736 mmHg 95%
02:00 +7°C° 0.5 mm 12 mps 736 mmHg 94%
03:00 +6°C° 0.5 mm 14 mps 736 mmHg 93%
04:00 +5°C° 0.2 mm 14 mps 737 mmHg 91%
05:00 +5°C° 0.2 mm 13 mps 738 mmHg 90%
06:00 +4°C° 0.2 mm 13 mps 739 mmHg 88%
07:00 +4°C° 0 mm 11 mps 740 mmHg 88%
08:00 +5°C° 0 mm 10 mps 741 mmHg 88%
09:00 +5°C° 0 mm 9 mps 742 mmHg 88%
10:00 +5°C° 0 mm 8 mps 743 mmHg 87%
11:00 +6°C° 0 mm 8 mps 744 mmHg 87%
12:00 +6°C° 0 mm 7 mps 745 mmHg 86%
13:00 +8°C° 0 mm 7 mps 745 mmHg 87%
14:00 +8°C° 0 mm 7 mps 745 mmHg 88%
15:00 +8°C° 0 mm 7 mps 745 mmHg 89%
16:00 +8°C° 0 mm 7 mps 745 mmHg 90%
17:00 +7°C° 0 mm 6 mps 745 mmHg 92%
18:00 +7°C° 0 mm 6 mps 745 mmHg 94%

29 January, Friday

Time Temperature Precipitation Wind Pressure Humidity
Show more